Weather History for KETC - November, 2012

Change the Weather History Date:

Friday, November 2, 2012

  Actual Average Record
Temperature  
Mean Temperature 46 °F -  
Max Temperature 85 °F 72 °F 95 °F (2014)
Min Temperature 32 °F 47 °F 28 °F (1976)
Degree Days  
Heating Degree Days 18    
Moisture  
Dew Point 34 °F    
Average Humidity 71    
Maximum Humidity 97    
Minimum Humidity 37    
Precipitation  
Precipitation 0.00 in - - ()
Sea Level Pressure  
Sea Level Pressure 29.87 in    
Wind  
Wind Speed 3 mph (West)    
Max Wind Speed 13 mph    
Max Gust Speed 21 mph    
Visibility 9 miles    
Events      
Averages and records for this station are not official NWS values.
T = Trace of Precipitation, MM = Missing Value Source: NWS Daily Summary

Daily Weather History Graph

Daily Weather History Graph

Search for Another Location

Airport or City:

Trip Planner

Search our weather history database for the weather conditions in past years. The results will help you decide how hot, cold, wet, or windy it might be!

Date:

Astronomy

Nov. 02, 2012 Rise Set
Actual Time 7:34 AM EDT 6:12 PM EDT
Civil Twilight 7:07 AM EDT 6:39 PM EDT
Nautical Twilight 6:37 AM EDT 7:09 PM EDT
Astronomical Twilight 6:07 AM EDT 7:39 PM EDT
Moon 9:02 PM EDT (11/2) 10:49 AM EDT (11/2)
Length of Visible Light 11h 32m
Length of Day
10h 38m
Waning Gibbous, 87% of the Moon is Illuminated
Nov 2
Waning Gibbous
Nov 6
Last Quarter
Nov 13
New
Nov 20
First Quarter
Nov 28
Full

Hourly Weather History & Observations

Time (EDT) Temp. Windchill Dew Point Humidity Pressure Visibility Wind Dir Wind Speed Gust Speed Precip Events Conditions
12:15 AM 41.7 °F 39.8 °F 35.1 °F 77% 29.84 in 10.0 mi West 3.5 mph - N/A   Clear
12:35 AM 40.3 °F - 35.2 °F 82% 29.84 in 10.0 mi Calm Calm - N/A   Clear
12:55 AM 37.6 °F 35.1 °F 34.2 °F 87% 29.85 in 10.0 mi West 3.5 mph - N/A   Clear
1:15 AM 37.8 °F 35.3 °F 35.1 °F 90% 29.85 in 10.0 mi West 3.5 mph - N/A   Clear
1:35 AM 36.1 °F 33.5 °F 33.8 °F 91% 29.85 in 10.0 mi West 3.5 mph - N/A   Clear
1:55 AM 35.1 °F - 33.1 °F 92% 29.85 in 10.0 mi Calm Calm - N/A   Clear
2:15 AM 34.9 °F - 33.3 °F 94% 29.85 in 1.8 mi Calm Calm - N/A   Mist
2:35 AM 34.3 °F - 32.9 °F 94% 29.85 in 5.0 mi Calm Calm - N/A   Clear
2:55 AM 33.8 °F - 32.5 °F 95% 29.85 in 5.0 mi Calm Calm - N/A   Clear
3:15 AM 32.9 °F - 32.0 °F 96% 29.86 in 1.5 mi Calm Calm - N/A   Scattered Clouds
3:35 AM 32.4 °F - 31.6 °F 97% 29.86 in 7.0 mi Calm Calm - N/A   Scattered Clouds
3:55 AM 32.4 °F - 31.6 °F 97% 29.85 in 10.0 mi Calm Calm - N/A   Clear
4:15 AM 32.9 °F - 31.8 °F 96% 29.85 in 10.0 mi Calm Calm - N/A   Clear
4:35 AM 32.5 °F 29.3 °F 31.8 °F 97% 29.85 in 10.0 mi WSW 3.5 mph - N/A   Clear
4:55 AM 34.3 °F 31.4 °F 33.1 °F 95% 29.86 in 10.0 mi WSW 3.5 mph - N/A   Clear
5:15 AM 36.3 °F 30.8 °F 33.3 °F 89% 29.86 in 10.0 mi West 6.9 mph - N/A   Clear
5:35 AM 37.4 °F 33.8 °F 33.1 °F 84% 29.87 in 10.0 mi West 4.6 mph - N/A   Clear
5:55 AM 37.6 °F 34.0 °F 32.7 °F 83% 29.87 in 10.0 mi West 4.6 mph - N/A   Clear
6:15 AM 37.6 °F 35.1 °F 32.7 °F 83% 29.87 in 10.0 mi West 3.5 mph - N/A   Clear
6:35 AM 37.6 °F - 32.4 °F 81% 29.87 in 10.0 mi Calm Calm - N/A   Clear
6:55 AM 35.1 °F - 31.8 °F 88% 29.87 in 10.0 mi Calm Calm - N/A   Clear
7:15 AM 33.8 °F - 31.8 °F 92% 29.87 in 1.0 mi Calm Calm - N/A   Mostly Cloudy
7:35 AM 33.6 °F - 32.2 °F 94% 29.88 in 4.0 mi Calm Calm - N/A   Scattered Clouds
7:55 AM 33.1 °F - 31.8 °F 95% 29.88 in 2.0 mi Calm Calm - N/A   Scattered Clouds
8:15 AM 33.8 °F - 32.5 °F 95% 29.89 in 10.0 mi Calm Calm - N/A   Scattered Clouds
8:35 AM 36.0 °F - 34.3 °F 94% 29.89 in 10.0 mi Calm Calm - N/A   Mostly Cloudy
8:55 AM 39.0 °F - 36.0 °F 89% 29.88 in 10.0 mi Calm Calm - N/A   Mostly Cloudy
9:15 AM 43.9 °F - 36.1 °F 74% 29.88 in 10.0 mi Calm Calm - N/A   Overcast
9:35 AM 45.5 °F 44.2 °F 35.8 °F 69% 29.88 in 10.0 mi WSW 3.5 mph - N/A   Overcast
9:55 AM 46.6 °F - 36.0 °F 67% 29.88 in 10.0 mi WSW 4.6 mph - N/A   Overcast
10:15 AM 48.2 °F - 36.5 °F 64% 29.88 in 10.0 mi SW 4.6 mph - N/A   Overcast
10:35 AM 50.2 °F - 36.1 °F 59% 29.87 in 10.0 mi WSW 5.8 mph - N/A   Overcast
10:55 AM 51.6 °F - 35.6 °F 54% 29.85 in 10.0 mi SSW 5.8 mph - N/A   Overcast
11:15 AM 52.9 °F - 35.4 °F 52% 29.86 in 10.0 mi SW 5.8 mph - N/A   Overcast
11:35 AM 53.6 °F - 35.4 °F 50% 29.85 in 10.0 mi SSW 4.6 mph - N/A   Overcast
11:55 AM 54.7 °F - 35.8 °F 49% 29.85 in 10.0 mi WSW 5.8 mph - N/A   Overcast
12:15 PM 55.9 °F - 35.2 °F 46% 29.84 in 10.0 mi WSW 4.6 mph - N/A   Mostly Cloudy
12:35 PM 57.4 °F - 34.7 °F 43% 29.84 in 10.0 mi West 9.2 mph - N/A   Mostly Cloudy
12:55 PM 57.9 °F - 33.8 °F 40% 29.82 in 10.0 mi West 4.6 mph - N/A   Mostly Cloudy
1:15 PM 57.4 °F - 34.5 °F 42% 29.82 in 10.0 mi WNW 5.8 mph - N/A   Overcast
1:35 PM 56.8 °F - 35.1 °F 44% 29.82 in 10.0 mi WNW 4.6 mph - N/A   Overcast
1:55 PM 57.0 °F - 36.0 °F 45% 29.82 in 10.0 mi Calm Calm - N/A   Overcast
2:15 PM 57.9 °F - 36.0 °F 44% 29.81 in 10.0 mi West 5.8 mph - N/A   Overcast
2:35 PM 58.3 °F - 36.5 °F 44% 29.82 in 10.0 mi NNW 5.8 mph - N/A   Overcast
2:55 PM 58.1 °F - 37.2 °F 46% 29.81 in 10.0 mi North 3.5 mph - N/A   Mostly Cloudy
3:15 PM 60.4 °F - 36.3 °F 41% 29.81 in 10.0 mi West 5.8 mph - N/A   Clear
3:35 PM 61.5 °F - 35.6 °F 38% 29.81 in 10.0 mi NW 6.9 mph - N/A   Clear
3:55 PM 61.5 °F - 34.7 °F 37% 29.82 in 10.0 mi WNW 12.7 mph 17.3 mph N/A   Scattered Clouds
4:15 PM 60.8 °F - 34.3 °F 37% 29.83 in 10.0 mi WNW 12.7 mph 20.7 mph N/A   Clear
4:35 PM 59.4 °F - 34.5 °F 39% 29.83 in 10.0 mi NW 11.5 mph 17.3 mph N/A   Clear
4:55 PM 59.0 °F - 34.7 °F 40% 29.84 in 10.0 mi NW 6.9 mph 17.3 mph N/A   Clear
5:15 PM 58.6 °F - 33.6 °F 39% 29.85 in 10.0 mi NW 8.1 mph - N/A   Clear
5:35 PM 57.9 °F - 33.4 °F 40% 29.85 in 10.0 mi NW 6.9 mph - N/A   Clear
5:55 PM 56.5 °F - 33.8 °F 42% 29.86 in 10.0 mi NW 4.6 mph - N/A   Clear
6:15 PM 54.5 °F - 34.0 °F 46% 29.87 in 10.0 mi Calm Calm - N/A   Clear
6:35 PM 52.9 °F - 34.7 °F 50% 29.87 in 10.0 mi NW 3.5 mph - N/A   Clear
6:55 PM 50.0 °F - 35.2 °F 57% 29.88 in 10.0 mi WSW 3.5 mph - N/A   Clear
7:15 PM 43.0 °F - 36.9 °F 79% 29.89 in 10.0 mi Calm Calm - N/A   Clear
7:55 PM 40.5 °F 38.4 °F 36.5 °F 86% 29.90 in 10.0 mi ENE 3.5 mph - N/A   Clear
8:15 PM 39.6 °F - 36.5 °F 89% 29.91 in 10.0 mi Calm Calm - N/A   Clear
8:35 PM 38.5 °F - 35.4 °F 89% 29.91 in 10.0 mi Calm Calm - N/A   Clear
8:55 PM 37.8 °F - 35.2 °F 91% 29.91 in 10.0 mi Calm Calm - N/A   Clear
9:15 PM 37.0 °F 34.5 °F 34.9 °F 92% 29.92 in 10.0 mi WNW 3.5 mph - N/A   Clear
9:35 PM 36.3 °F 33.7 °F 34.3 °F 93% 29.92 in 10.0 mi WNW 3.5 mph - N/A   Clear
9:55 PM 36.3 °F 32.5 °F 34.2 °F 92% 29.93 in 10.0 mi NW 4.6 mph - N/A   Clear
10:15 PM 43.2 °F 40.5 °F 33.6 °F 69% 29.93 in 10.0 mi West 4.6 mph - N/A   Clear
10:35 PM 43.2 °F 40.5 °F 33.3 °F 68% 29.94 in 10.0 mi West 4.6 mph - N/A   Clear
10:55 PM 40.6 °F 38.6 °F 33.1 °F 74% 29.95 in 10.0 mi West 3.5 mph - N/A   Clear
11:15 PM 37.6 °F 34.0 °F 32.7 °F 83% 29.95 in 10.0 mi West 4.6 mph - N/A   Clear
11:35 PM 38.1 °F 33.7 °F 32.7 °F 81% 29.95 in 10.0 mi WNW 5.8 mph - N/A   Clear
11:55 PM 39.6 °F 37.4 °F 32.4 °F 75% 29.96 in 10.0 mi West 3.5 mph - N/A   Clear